User: anonymous   Login
Location: Caltech
(34.1382°N, 118.1253°W)
Time: 07:55:58
(UTC-07:00)
Language:

SO-67 - Orbit

View from above orbital plane
View from above orbital plane
View from above satellite
View from above satellite

Ground track
Ground track

The orbit data is extracted from the following two-line orbital elements,

1 35870U 09049F   16127.12085561  .00010374  00000-0  19877-3 0  9990
2 35870  97.1216 142.5834 0003224 100.6015 300.1566 15.48201247370131
Epoch (UTC): 06 May 2016 02:54:01
Eccentricity: 0.0003224
inclination: 97.1216°
perigee height: 420 km
apogee height: 424 km
right ascension of ascending node: 142.5834°
argument of perigee: 100.6015°
revolutions per day: 15.48201247
mean anomaly at epoch: 300.1566°
orbit number at epoch: 37013

The dashed part of the orbit path shows where the satellite is in the earth's shadow,  

DLR